Regional Weather Roundup
Issued by NWS

Home | Current Version | Previous Version | Graphics & Text | Print | Product List | Glossary On
Versions: 1 2 3 4 5 6 7 8 9 10 11 12 13 14 15 16 17 18 19 20 21 22 23 24 25 26 27 28 29 30 31 32 33 34 35 36 37 38 39 40 41 42 43 44 45 46 47 48 49 50
000
ASUS45 KBOU 011010
RWRCO

WEATHER ROUNDUP FOR COLORADO
NATIONAL WEATHER SERVICE DENVER/BOULDER CO
400 AM MDT SAT OCT 01 2016

NOTE: "FAIR" INDICATES FEW OR NO CLOUDS BELOW 12000 FEET WITH NO
SIGNIFICANT WEATHER AND/OR OBSTRUCTIONS TO VISIBILITY.

COZ001>005-013-030-031-011100-
...NORTHWEST COLORADO...

CITY           SKY/WX    TMP DP  RH WIND       PRES   REMARKS
CRAIG          FAIR      39  37  92 CALM      30.25F
HAYDEN         FAIR      45  37  76 E9        30.26F
MEEKER         FAIR      41  39  93 NE3       30.26S
MOUNT WERNER   NOT AVBL
STEAMBOAT SPGS FAIR      40  40  97 CALM      30.28F
WALDEN           N/A     34  32  93 E5        30.35S WCI  30
$$

COZ006>008-011-011100-
...WEST CENTRAL VALLEYS...

CITY           SKY/WX    TMP DP  RH WIND       PRES   REMARKS
GRAND JUNCTION FAIR      53  47  79 SE10      30.17F
MONTROSE       FAIR      47  41  80 S8        30.25F
EAGLE          FAIR      39  37  93 CALM      30.32S
RIFLE          FAIR      47  44  90 CALM      30.23F
DELTA          NOT AVBL
NUCLA          FAIR      45  41  87 E8        30.28S
$$

COZ017>023-064>068-011100-
...SOUTHWEST COLORADO...

CITY           SKY/WX    TMP DP  RH WIND       PRES   REMARKS
DURANGO        FAIR      43  38  82 N3        30.27F
CORTEZ         FAIR      43  40  89 CALM      30.24F
PAGOSA SPRINGS FAIR      41  39  93 CALM      30.33F
TELLURIDE      FAIR      41  38  89 SE5       30.40S
WOLF CREEK PAS FAIR      34  34 100 MISG      30.54F
$$

COZ009-010-012-014-032>034-037-058>063-011100-
...CENTRAL COLORADO...

CITY           SKY/WX    TMP DP  RH WIND       PRES   REMARKS
ASPEN          FAIR      40  37  89 SW6       30.32S
BUENA VISTA    FAIR      43  40  89 NW5       30.33F
COPPER MTN     FAIR      41  32  70 W3        30.51F
BERTHOUD PASS  FAIR      32  21  64 N16       30.53F WCI  21
COTTONWOOD PAS FAIR      46  36  66 SW7       30.41F
GUNNISON       FAIR      35  34  96 CALM      30.35S
KREMMLING      FOG       34  32  93 E3        30.35S VSB 1/4
LEADVILLE      FAIR      34  31  88 CALM      30.41F
MONARCH PASS   FAIR      36  34  93 SW5       30.61S
SALIDA         FAIR      45  42  88 W6        30.39S
SUNLIGHT       FAIR      43  36  75 CALM      30.48F
WILKERSON PASS FAIR      39  32  75 N5        30.50F
$$

COZ069>075-011100-
...SAN LUIS VALLEY/SANGRE DE CRISTO MOUNTAINS...

CITY           SKY/WX    TMP DP  RH WIND       PRES   REMARKS
ALAMOSA        FAIR      39  37  92 CALM      30.30F
LA VETA PASS   FAIR      43  36  75 MISG      30.41F
SAGUACHE       FAIR      41  36  81 N10       30.33S
$$

COZ035-036-038>040-011100-
...NORTHERN COLORADO FRONT RANGE...

CITY           SKY/WX    TMP DP  RH WIND       PRES   REMARKS
DENVER INTL AP FAIR      53  44  71 W9        30.15F
DMNS CITY PARK   N/A     53  46  75 SW3G9     30.15S
AURORA         PTCLDY    51  45  80 SW8       30.17F
FRONT RANGE AP FAIR      55  45  67 SW10      30.16S
ERIE MUNI ARPT FAIR      47  42  84 CALM      30.15S
BOULDER MUN AP FAIR      54  41  62 SW5       30.14F
CENTENNIAL     FAIR      49  42  77 S5        30.18S
BROOMFIELD     FAIR      55  39  54 W3        30.17F
FORT COLLINS   FAIR      50  45  81 CALM      30.14S
LONGMONT       FAIR      48  44  84 SW5       30.16S
$$

COZ041-046-047-076>085-087-088-011100-
...PIKES PEAK/PALMER DIVIDE AND SOUTHERN FOOTHILLS...

CITY           SKY/WX    TMP DP  RH WIND       PRES   REMARKS
COLO. SPRINGS  FAIR      53  44  71 N10       30.20F
A. F. ACADEMY  CLOUDY    49  46  88 N9        30.21F
SCHRIEVER AFB  NOT AVBL
ELLICOTT       NOT AVBL
FALCON         FAIR      52  40  65 W7        30.23F
FORT CARSON    CLOUDY    54  46  75 NW9       30.16F
LIMON          FAIR      44  39  82 N5        30.16F
MONUMENT HILL  FAIR      43  39  87 SW9       30.25S
TRINIDAD       FAIR      53  45  74 W15       30.17F
$$

COZ042>045-048>051-090-091-011100-
...NORTHEAST COLORADO...

CITY           SKY/WX    TMP DP  RH WIND       PRES   REMARKS
GREELEY ARPT   CLOUDY   N/A N/A N/A NW6       30.13S
AKRON          FAIR      52  44  74 S9        30.12F
BURLINGTON     FAIR      49  43  80 S6        30.12F
WRAY           NOT AVBL
STERLING       FAIR      45  43  93 SW7       30.09F
HOLYOKE        FAIR      46  41  81 CALM      30.12S
FORT MORGAN    FAIR      46  42  84 CALM      30.12S
$$

COZ086-089-092>099-011100-
...SOUTHEAST COLORADO...

CITY           SKY/WX    TMP DP  RH WIND       PRES   REMARKS
PUEBLO         FAIR      56  47  71 N3        30.13S
LA JUNTA       FAIR      54  47  77 N7        30.10F
LAMAR          FAIR      50  45  83 NE5       30.06F
SPRINGFIELD      N/A     50  46  86 CALM      30.09R
$$



USA.gov is the U.S. government's official web portal to all federal, state and local government web resources and services.